Regional Weather Roundup
Issued by NWS

Home | Current Version | Previous Version | Graphics & Text | Print | Product List | Glossary On
Versions: 1 2 3 4 5 6 7 8 9 10 11 12 13 14 15 16 17 18 19 20 21 22 23 24 25 26 27 28 29 30 31 32 33 34 35 36 37 38 39 40 41 42 43 44 45 46 47 48 49 50
000
ASUS43 KDTX 280901
RWRMI
MICHIGAN HOURLY REGIONAL WEATHER ROUNDUP
NATIONAL WEATHER SERVICE DETROIT/PONTIAC MI
400 AM EST FRI NOV 28 2014

NOTE: "FAIR" INDICATES FEW OR NO CLOUDS BELOW 12,000 FEET WITH NO
SIGNIFICANT WEATHER AND/OR OBSTRUCTION TO VISIBILITY.

MIZ047>049-052>055-059>063-066>070-074>076-081>083-281000-
SOUTHEAST LOWER MICHIGAN

CITY           SKY/WX    TMP DP  RH WIND       PRES   REMARKS
ADRIAN         CLEAR     16   8  71 NW5       30.36R WCI   9
ALMA           CLOUDY    19  10  67 W7        30.34S WCI  10
ANN ARBOR      CLEAR     16   9  74 W7        30.34R WCI   6
BAD AXE        CLOUDY    19  11  70 NW10      30.30R WCI   7
CARO           CLOUDY    19  12  73 W9        30.32R WCI   9
DETROIT CITY   CLEAR     22   6  50 NW7       30.34R WCI  13
DETROIT        CLOUDY    21   8  57 W12       30.35R WCI   9
FLINT          CLEAR     16   9  74 W6        30.33R WCI   7
GROSSE ILE     CLEAR     21  10  63 W6        30.33S WCI  14
HILLSDALE      CLOUDY    18  15  88 CALM      30.31F
HOWELL         CLEAR     15   8  71 W5        30.32S WCI   8

CITY           SKY/WX    TMP DP  RH WIND       PRES   REMARKS
JACKSON        CLEAR     15   7  70 CALM      30.33S
LAMBERTVILLE   CLEAR     19  10  68 NW5       30.37R WCI  13
LANSING        CLEAR     16   8  71 NW3       30.34F
LAPEER         FAIR      18   9  67 W7        30.32R WCI   9
MASON          CLEAR     17   9  68 W3        30.33S
MONROE         CLEAR     16  10  79 CALM      30.34R
MT. CLEMENS    CLEAR     19   8  64 W7        30.31R WCI   9
PONTIAC        CLEAR     16   7  67 W9        30.31R WCI   4
PORT HOPE        N/A     20   7  57 W10G21    30.27S WCI   9
PORT HURON     CLOUDY    21   9  58 NW9       30.31S WCI  11
TRI CITIES     CLEAR     16  10  77 W7        30.34S WCI   6
TROY           CLEAR     21   8  55 W5        30.35R WCI  15
SAGINAW HB     CLEAR     18  12  79 W8        30.34R WCI   7
$$
MIZ043>046-050>051-056>058-064>065-071>073-077>080-281000-
SOUTHWEST LOWER MICHIGAN

CITY           SKY/WX    TMP DP  RH WIND       PRES   REMARKS
BATTLE CREEK   CLOUDY    21   9  59 CALM      30.33F
BENTON HARBOR  CLOUDY    22  15  75 S6        30.34S WCI  14
BIG RAPIDS     FLURRIES  17  15  90 CALM      30.29F
COLDWATER      FLURRIES  23  16  76 CALM      30.33S
FREMONT        FLURRIES  19  14  82 CALM      30.32F
HOLLAND        CLOUDY    20  15  81 SE5       30.33F WCI  13
GRAND RAPIDS   CLOUDY    19  12  74 S3        30.34S
IONIA          FAIR      18  12  78 CALM      30.32F
KALAMAZOO      CLOUDY    21  14  74 CALM      30.33F
LUDINGTON      CLOUDY    19  15  84 CALM      30.32S
MARSHALL       CLOUDY    16  13  86 CALM      30.33S
MOUNT PLEASANT CLOUDY    19  12  72 CALM      30.32F
MUSKEGON       LGT SNOW  20  15  81 SE8       30.34F WCI  10
SOUTH HAVEN    CLOUDY    22  19  89 CALM      30.34S
$$
MIZ016>042-281000-
NORTHERN LOWER MICHIGAN

CITY           SKY/WX    TMP DP  RH WIND       PRES   REMARKS
ALPENA         MOCLDY    15  10  80 W8        30.28R WCI   4
BEAVER ISLAND  CLOUDY    20  11  68 W7        30.28S WCI  11
BELLAIRE       CLOUDY    18  15  88 CALM      30.30S
CADILLAC       FLURRIES  15  11  85 CALM      30.25F
CHARLEVOIX     FLURRIES  20  11  67 SW9       30.30S WCI   9
FRANKFORT      MOCLDY    18  15  86 CALM      30.31S
GAYLORD        CLOUDY    12   9  87 SW3       30.23R
GRAYLING       LGT SNOW  16  13  90 SW3       30.26S
HARBOR SPRINGS CLOUDY    18   9  68 NW5       30.27F WCI  11
HOUGHTON LAKE  CLOUDY    13   9  84 W3        30.27S
MANISTEE       CLOUDY    18  12  79 CALM      30.31F
OSCODA         CLOUDY    13   9  82 SW6       30.29S WCI   4
PELLSTON       CLOUDY    17  10  74 CALM      30.28S
ROGERS CITY    FLURRIES  17  14  86 W5        30.28R WCI  10
TRAVERSE CITY  CLOUDY    18  12  77 CALM      30.30F
$$
MIZ007>008-015-281000-
EASTERN UPPER MICHIGAN

CITY           SKY/WX    TMP DP  RH WIND       PRES   REMARKS
KINROSS        MOCLDY    -2  -4  92 CALM      30.27S
MACKINAC ISLAN CLOUDY    16  12  84 N3        30.26F
NEWBERRY       CLOUDY    10   8  92 W10       30.24S WCI  -4
S. S. MARIE    PTCLDY    -3  -8  79 CALM      30.27F
MUNISING         N/A     10   1  67 S5        30.28F WCI   2
$$
MIZ004>006-011>014-085-281000-
CENTRAL UPPER MICHIGAN

CITY           SKY/WX    TMP DP  RH WIND       PRES   REMARKS
MANISTIQUE     PTCLDY     7   2  81 W6        30.28F WCI  -4
ESCANABA       MOCLDY     3  -2  78 W6        30.30S WCI  -8
MENOMINEE      MOCLDY     3   1  92 CALM      30.32S
SAWYER-GWINN   MOCLDY    -1  -5  85 W3        30.23F
$$
MIZ001>003-009>011-084-281000-
WESTERN UPPER MICHIGAN

CITY           SKY/WX    TMP DP  RH WIND       PRES   REMARKS
IRON MOUNTAIN  MOCLDY    -3  -8  79 CALM      30.25F
HOUGHTON       PTCLDY     7   0  73 SW5       30.20F WCI  -2
COPPER HARBOR    N/A     13   7  77 SW8       30.22F WCI   2
IRONWOOD       CLOUDY     3   0  85 S7        30.16F WCI  -9
$$

ABBREVIATIONS USED IN REMARKS
   TC - TEMPERATURE IN CELSIUS
  WCI - WIND CHILL INDEX
   HX - HEAT INDEX
  VSB - VISIBILITY




USA.gov is the U.S. government's official web portal to all federal, state and local government web resources and services.